Content
SEND FEEDBACK

Daily
Averages
Monthly
Summary
Mexico

CANCUN, QUINTANA ROO


Home > North America > Mexico > Quintana Roo
Elevation: 9 meters     Latitude: 21 09N     Longitude: 086 49W

WEATHER
 
SELECT A DAY
Number of Records: 163,905;   Date Range: 1/1/95 - 8/10/14
 
SHARE

PRINT THIS DATA

[ ← Previous Day ]
WEATHER ALMANAC - 7 MAY, 2013
[ Next Day → ]
[ °F ]   °C
Weather ElementAverageHighLow
Temperature24.5 °C29 °C (1:45 pm)18 °C (4:42 am)
Dewpoint18.3 °C20 °C (5:40 pm)17 °C (3:44 am)
Humidity69.7 %94 % (2:43 am)51 % (11:44 am)
Barometer1016.6 hPa1018.3 hPa (9:42 am)1015.2 hPa (3:44 am)
Wind Speed9.3 km/h22.2 km/h (12:44 pm)
Weather ElementAverage
Visibility11.3 km
Wind DirectionESE (114.8 °)

Weather ElementTotal
Precipitation---
Cooling Degree Days5.2 (Base 18.3)
Growing Degree Days13.5 (Base 10)
Averaged from 23 records on 7 May, 2013
WEATHER CONDITIONS BREAKOUT
WIND DIRECTION BREAKOUT
WEATHER BY HOUR - 7 MAY, 2013
[ °F ]   °C
Local TimeTemperatureDewpointHumidityBarometerVisibilityWind DirectionWind SpeedGust SpeedPrecipitationEventsConditions
1:45 AM20 °C18 °C88 %1015.9 hPa11.3 kmNW (310°)5.6 km/hScattered Clouds
2:43 AM19 °C18 °C94 %1015.6 hPa11.3 kmNNW (330°)5.6 km/hScattered Clouds
3:44 AM19 °C17 °C88 %1015.2 hPa11.3 kmCalmScattered Clouds
4:42 AM18 °C17 °C94 %1015.6 hPa11.3 kmCalmScattered Clouds
5:44 AM18 °C17 °C94 %1016.3 hPa11.3 kmNW (320°)5.6 km/hOvercast
6:44 AM19 °C17 °C88 %1016.6 hPa11.3 kmCalmScattered Clouds
7:45 AM23 °C19 °C78 %1017.3 hPa11.3 kmCalmScattered Clouds
8:45 AM27 °C18 °C58 %1017.6 hPa11.3 kmSE (130°)11.1 km/hScattered Clouds
9:42 AM27 °C18 °C58 %1018.3 hPa11.3 kmSE (140°)11.1 km/hPartly Cloudy
10:40 AM28 °C18 °C54 %1018.3 hPa11.3 kmESE (120°)14.8 km/hPartly Cloudy
11:44 AM28 °C17 °C51 %1017.9 hPa11.3 kmEast (80°)11.1 km/hPartly Cloudy
12:44 PM28 °C18 °C54 %1017.6 hPa11.3 kmEast (100°)22.2 km/hPartly Cloudy
1:45 PM29 °C18 °C51 %1016.9 hPa11.3 kmENE (70°)13 km/hPartly Cloudy
2:40 PM28 °C18 °C54 %1016.3 hPa11.3 kmENE (70°)16.7 km/hPartly Cloudy
3:48 PM28 °C19 °C58 %1015.9 hPa11.3 kmEast (90°)14.8 km/hClear
4:42 PM28 °C19 °C58 %1015.6 hPa11.3 kmEast (100°)14.8 km/hClear
5:40 PM27 °C20 °C65 %1015.6 hPa11.3 kmEast (100°)11.1 km/hClear
6:41 PM27 °C20 °C65 %1015.9 hPa11.3 kmESE (110°)11.1 km/hScattered Clouds
7:40 PM25 °C19 °C69 %1015.9 hPa11.3 kmESE (110°)9.3 km/hScattered Clouds
8:42 PM25 °C18 °C65 %1016.6 hPa11.3 kmESE (110°)9.3 km/hScattered Clouds
9:48 PM24 °C19 °C73 %1015.6 hPa11.3 kmESE (120°)9.3 km/hScattered Clouds
10:47 PM24 °C19 °C73 %1017.6 hPa11.3 kmESE (110°)9.3 km/hScattered Clouds
11:46 PM24 °C19 °C73 %1017.6 hPa11.3 kmESE (120°)9.3 km/hScattered Clouds
Hourly data recorded from MMUN, located 0 kilometers away from Cancun, Quintana Roo







STORIES FROM OUR PARTNERS